Regional Weather Roundup
Issued by NWS

Home | Current Version | Previous Version | Text Only | Print | Product List | Glossary Off
Versions: 1 2 3 4 5 6 7 8 9 10 11 12 13 14 15 16 17 18 19 20 21 22 23 24 25 26 27 28 29 30 31 32 33 34 35 36 37 38 39 40 41 42 43 44 45 46 47 48 49 50

000
ASUS45 KPSR 292010
RWRAZ

ARIZONA REGIONAL HOURLY WEATHER ROUNDUP
NATIONAL WEATHER SERVICE PHOENIX AZ
100 PM MST MON SEP 29 2014

NOTE: FAIR INDICATES FEW OR NO CLOUDS BELOW 12,000 FEET WITH NO
SIGNIFICANT WEATHER AND/OR OBSTRUCTIONS TO VISIBILITY.

AZZ001>003-036-292100-
NORTHWEST ARIZONA

CITY           SKY/WX    TMP DP  RH WIND       PRES   REMARKS
BULLHEAD CITY  SUNNY     86  37  17 E3        29.87F
KINGMAN        NOT AVBL
$$

AZZ004>008-015-016-018-292100-
NORTH CENTRAL ARIZONA

CITY           SKY/WX    TMP DP  RH WIND       PRES   REMARKS
GRAND CANYON   MOSUNNY   59  36  42 SW13G24   30.12F
PRESCOTT       SUNNY     68  32  26 NW5       30.06F
FLAGSTAFF      SUNNY     60  30  32 W8        30.13F
PAYSON         SUNNY     68  36  30 SE5       30.08F
$$

AZZ009>014-017-292100-
NORTHEAST ARIZONA

CITY           SKY/WX    TMP DP  RH WIND       PRES   REMARKS
WINSLOW        SUNNY     73  25  16 W20       30.03F
SAINT JOHNS    SUNNY     71  32  23 W18G30    30.05F
WINDOW ROCK    MOSUNNY   63  32  31 SW22G31   30.09
SHOW LOW       SUNNY     64  32  29 SW16      30.13F
$$

AZZ023-292100-
GREATER PHOENIX AREA

CITY           SKY/WX    TMP DP  RH WIND       PRES   REMARKS
PHOENIX        SUNNY     85  42  22 VRB3      29.86F
BUCKEYE          N/A     82  41  23 SE5       29.87F
GLENDALE       SUNNY     84  45  24 CALM      29.88F
LUKE AFB       SUNNY     84  45  24 NE5       29.86F HAZE
DEER VALLEY    SUNNY     84  38  19 N3        29.88F
SCOTTSDALE     SUNNY     82  41  23 CALM      29.89F
MESA-FALCON    SUNNY     82  46  28 W7        29.87F
MESA-GATEWAY   SUNNY     82  48  30 CALM      29.90F
CHANDLER       SUNNY     84  48  28 VRB6      29.87F
$$

AZZ027-028-292100-
SOUTHWEST MARICOPA COUNTY AND PINAL COUNTY

CITY           SKY/WX    TMP DP  RH WIND       PRES   REMARKS
CASA GRANDE    SUNNY     82  45  26 W6        29.88F
GILA BEND      CLEAR     86  39  19 NE2       29.87F
$$

AZZ503-504-507>509-292100-
SOUTHEAST ARIZONA

CITY           SKY/WX    TMP DP  RH WIND       PRES   REMARKS
TUCSON         SUNNY     86  51  29 N5        29.92F
DAVIS-MONTHAN  SUNNY     83  54  36 NW7       29.91F
RYAN FIELD       N/A     88  52  29 MISG      29.92F
NOGALES        SUNNY     84  54  35 SW14G22   29.99F
SIERRA VISTA   PTSUNNY   82  54  36 SW14G21   30.03F
DOUGLAS        PTSUNNY   85  54  34 SW16G24   29.99F
SAFFORD        SUNNY     85  49  28 VRB6      29.91F
$$

AZZ020-021-025-026-031-292100-
SOUTHWEST ARIZONA

CITY           SKY/WX    TMP DP  RH WIND       PRES   REMARKS
YUMA           SUNNY     89  35  14 CALM      29.84F
$$

CAZ031-033-041-043-047-048-061-292100-
SOUTHERN CALIFORNIA

CITY           SKY/WX    TMP DP  RH WIND       PRES   REMARKS
DOWNTOWN L.A.  SUNNY     76  57  51 W7        29.91F
L.A. AIRPORT   MOSUNNY   71  58  63 W12       29.93F
SAN DIEGO      SUNNY     74  58  57 NW12      29.90F
BURBANK        SUNNY     77  52  41 S7        29.91F
ONTARIO        MOSUNNY   78  53  41 SW10      29.91F
RIVERSIDE      SUNNY     79  54  41 W10       29.91F
PALM SPRINGS   SUNNY     87  37  17 CALM      29.87F
EL CENTRO NAS  SUNNY     87  41  19 N5        29.84F
IMPERIAL       SUNNY     86  45  23 NW5       29.84F
BLYTHE         SUNNY     87  40  19 VRB5      29.86F
NEEDLES        SUNNY     86  34  15 VRB3      29.88F
$$

NVZ020-UTZ003-292100-
SOUTHERN NEVADA-UTAH

CITY           SKY/WX    TMP DP  RH WIND       PRES   REMARKS
LAS VEGAS      MOSUNNY   78  36  21 S9        29.90F
SALT LAKE CITY PTSUNNY   62  45  53 VRB3      29.97S
$$

NMZ009-TXZ055-292100-
NEW MEXICO-WEST TEXAS

CITY           SKY/WX    TMP DP  RH WIND       PRES   REMARKS
ALBUQUERQUE    TSTM      67  51  56 S30G62    29.98F SQUALL
EL PASO        MOSUNNY   84  58  40 S9        29.96F
$$


........................KEY........................
SKY/WX - SKY CONDITION/WEATHER
TMP    - TEMPERATURE IN FAHRENHEIT
DP     - DEW POINT IN FAHRENHEIT
RH     - RELATIVE HUMIDITY IN PERCENT
WIND   - DIRECTION AND SPEED IN MILES PER HOUR (MPH)
VRB    - VARIABLE WIND DIRECTION
PRES   - MEAN SEA LEVEL PRESSURE IN INCHES OF MERCURY
         F - FALLING PRESSURE   R - RISING PRESSURE
         S - STEADY PRESSURE
VSB    - VISIBILITY IN MILES
HX     - HEAT INDEX IN FAHRENHEIT
WCI    - WIND CHILL INDEX IN FAHRENHEIT
TC     - TEMPERATURE IN CELSIUS WHICH IS ALSO KNOWN AS
         TEMPERATURE IN CENTIGRADE
AFB    - AIR FORCE BASE
         LUKE AFB IS LUKE AIR FORCE BASE
         DAVIS-MONTHAN IS DAVIS-MONTHAN AIR FORCE BASE
NAS    - NAVAL AIR STATION
         EL CENTRO NAS IS EL CENTRO NAVAL AIR STATION
N/A    - NOT AVAILABLE


USA.gov is the U.S. government's official web portal to all federal, state and local government web resources and services.